Find Starlink 11233

NORAD ID: 61061 Int'l Des: 2024-164 Owner: SPXS Country: US Constellation: starlink operational
LEOCIRCULAR

Live Position

Loading 3D Globe...

About Starlink 11233

Description loading...

Upcoming Passes

Passes for default location (London). Set your location on the main map for personalized predictions.

Altitude History

Loading altitude history...

Two-Line Element Set

1 61061U 24164M 26126.98872924 -.00002773 00000-0 -18054-4 0 9990
2 61061 53.1565 24.0016 0000570 68.2007 291.9072 15.69697231 94573
Epoch: May 6, 2026 • Age: 14 hours

Current Status

Altitude 365.6 km
Velocity 7.70 km/s
Sub-Earth Point 51.69°N, 56.37°E
Launch Date Sep 13, 2024
Age 1.6 years
Type internet

Technical Details

Classification Payload
Mass 960.00 kg
Dry Mass 910.00 kg
Total Mass 960.00 kg
Length 0.30 m
Diameter 4.10 m
Span 29.00 m
Shape Box + pan
Manufacturer SPXS
Bus Type Starlink V2MD
Phase Status In Orbit
Owner/State SPXS/US

Most Searched